Regional Weather Roundup
Issued by NWS Sioux Falls, SD

Home | Current Version | Previous Version | Graphics & Text | Print | Product List | Glossary On
Versions: 1 2 3 4 5 6 7 8 9 10 11 12 13 14 15 16 17 18 19 20 21 22 23 24 25 26 27 28 29 30 31 32 33 34 35 36 37 38 39 40 41 42 43 44 45 46 47 48 49 50
000
ASUS43 KFSD 261302
RWRFSD

WEATHER ROUNDUP FOR SE SOUTH DAKOTA/SW MINNESOTA/NW IOWA
NATIONAL WEATHER SERVICE SIOUX FALLS SD
800 AM CDT MON JUN 26 2017

NOTE: "FAIR" INDICATES FEW OR NO CLOUDS BELOW 12,000 FEET WITH NO
SIGNIFICANT WEATHER AND OR OBSTRUCTIONS TO VISIBILITY.


SDZ038>040-050-052>070-261400-
SOUTHEAST SOUTH DAKOTA

CITY           SKY/WX    TMP DP  RH WIND       PRES   REMARKS
BROOKINGS      SUNNY     51  47  86 VRB3      30.25R
CHAMBERLAIN    SUNNY     58  49  73 N3        30.25R
HURON          SUNNY     52  49  89 N3        30.26R
MADISON        FAIR      54  54 100 NE9       30.24R
MITCHELL       SUNNY     56  52  86 N7        30.24S
SIOUX FALLS    SUNNY     56  52  86 NE5       30.23R
WINNER         FAIR      56  47  71 N3        30.25S
YANKTON        SUNNY     57  52  83 NE5       30.22S
$$

MNZ071-072-080-081-089-090-097-098-261400-
SOUTHWEST MINNESOTA

CITY           SKY/WX    TMP DP  RH WIND       PRES   REMARKS
FAIRMONT       SUNNY     56  48  74 N10       30.21
JACKSON        SUNNY     55  48  76 N3        30.21S
LUVERNE        SUNNY     54  46  76 N6        30.23R
MARSHALL       SUNNY     54  47  77 NW8       30.24R
MONTEVIDEO     SUNNY     57  52  82 N3        30.23R
PIPESTONE      SUNNY     55  46  71 NE6       30.22S
REDWOOD FALLS  SUNNY     55  46  71 N3        30.22R
TRACY          SUNNY     55  48  79 N3        30.24R
WINDOM         SUNNY     55  46  71 N8        30.22R
WORTHINGTON    SUNNY     55  49  80 N13       30.22R
$$

IAZ001>003-012>014-020>022-031-032-NEZ013-014-SDZ071-261400-
NORTHWEST IOWA

CITY           SKY/WX    TMP DP  RH WIND       PRES   REMARKS
CHEROKEE       SUNNY     56  55  95 CALM      30.21S
DENISON        CLOUDY    57  52  82 CALM      30.20S
ESTHERVILLE    SUNNY     56  50  80 N8        30.20R
LE MARS        SUNNY     57  52  82 CALM      30.22S
ORANGE CITY    SUNNY     57  54  88 NW3       30.21S
SHELDON        SUNNY     57  52  82 N5        30.20S
SIOUX CITY     MOSUNNY   58  53  84 NE3       30.21R
SPENCER        SUNNY     59  52  77 N8        30.21R
STORM LAKE     SUNNY     59  50  72 CALM      30.21S
$$

ABBREVIATIONS USED IN REMARKS
   TC - TEMPERATURE IN CELSIUS
  WCI - WIND CHILL INDEX
   HX - HEAT INDEX
  VSB - VISIBILITY




USA.gov is the U.S. government's official web portal to all federal, state and local government web resources and services.